This is the latest recevied weather packets stored in our database for station/object KM4CBK. If no packets are shown the sender has not sent any weather packets the latest 10 day(s).
| Time | Temp. | Humidity | Pressure | Rain* | Wind** | Luminosity | Snow |
|---|---|---|---|---|---|---|---|
| 1777732109 | 15° C | 85% | 1013.1 hPa | 0 mm | - | 442 W/m² | - |
| 1777731806 | 15° C | 88% | 1013.2 hPa | 0 mm | - | 76 W/m² | - |
| 1777731502 | 15° C | 90% | 1013.1 hPa | 0 mm | - | 503 W/m² | - |
| 1777731201 | 14.44° C | 91% | 1012.9 hPa | 0 mm | - | 505 W/m² | - |
| 1777730898 | 13.89° C | 92% | 1013.2 hPa | 0 mm | - | 464 W/m² | - |
| 1777730595 | 13.33° C | 98% | 1012.9 hPa | 0 mm | - | 308 W/m² | - |
| 1777730292 | 12.78° C | 98% | 1012.8 hPa | 0 mm | - | 253 W/m² | - |
| 1777729989 | 13.33° C | 99% | 1013.1 hPa | 0 mm | - | 279 W/m² | - |
| 1777729684 | 12.78° C | 99% | 1013.1 hPa | 0 mm | - | 138 W/m² | - |
| 1777729382 | 12.22° C | 99% | 1013 hPa | 0 mm | - | 95 W/m² | - |
| 1777729078 | 11.67° C | 99% | 1013 hPa | 0 mm | - | 117 W/m² | - |
| 1777728775 | 11.67° C | 99% | 1013 hPa | 0 mm | - | 117 W/m² | - |
| 1777728471 | 11.67° C | 99% | 1012.9 hPa | 0 mm | - | 114 W/m² | - |
| 1777728169 | 11.67° C | 99% | 1012.9 hPa | 0 mm | - | 109 W/m² | - |
| 1777727866 | 11.67° C | 99% | 1012.9 hPa | 0 mm | - | 98 W/m² | - |
| 1777727563 | 11.67° C | 99% | 1012.7 hPa | 0 mm | - | 88 W/m² | - |
| 1777727260 | 11.67° C | 99% | 1012.8 hPa | 0 mm | - | 91 W/m² | - |
| 1777726957 | 11.67° C | 99% | 1012.8 hPa | 0 mm | - | 76 W/m² | - |
| 1777726653 | 11.67° C | 99% | 1012.5 hPa | 0 mm | - | 69 W/m² | - |
| 1777726351 | 11.67° C | 99% | 1012.4 hPa | 0 mm | - | 67 W/m² | - |
| 1777726048 | 12.22° C | 99% | 1012.4 hPa | 0 mm | - | 50 W/m² | - |
| 1777725745 | 12.22° C | 99% | 1012 hPa | 0 mm | - | 60 W/m² | - |
| 1777725443 | 12.22° C | 99% | 1011.7 hPa | 0 mm | - | 49 W/m² | - |
| 1777725140 | 12.22° C | 99% | 1012 hPa | 0 mm | - | 70 W/m² | - |
| 1777724837 | 12.22° C | 99% | 1012.1 hPa | 0 mm | - | 54 W/m² | - |
* Rain latest hour (hover to see other rain measurements)
** Current wind speed in m/s (hover to see current wind gust speed)